Wind_Speed
29 27 25 23 21 20 18 16 15 14 13 12 11 10 9 8 7 6 5 3 2 1 1 0 0 1 1 1 1 1 1 2 2 2 3 4 5 6 7 8 10 11 12
31 29 27 25 23 21 20 18 16 15 14 13 12 11 10 9 8 7 6 4 3 2 1 1 1 0 0 0 1 1 1 1 0 1 2 3 5 6 7 8 10 11 12
33 31 29 27 25 23 21 20 18 17 15 14 13 12 12 11 9 8 7 6 4 3 2 2 2 2 1 1 1 1 1 1 1 1 2 3 5 6 7 8 10 11 12
35 33 31 29 27 25 23 22 20 18 17 16 14 13 13 12 10 9 8 7 5 4 4 3 3 3 2 2 2 2 2 3 2 2 3 4 5 7 8 9 10 11 12
37 35 33 31 29 27 25 23 22 20 19 17 16 15 14 13 12 10 9 8 7 6 5 4 4 4 3 3 4 4 4 4 4 4 4 5 6 7 8 9 11 12 13
39 37 35 33 31 29 27 25 23 21 20 19 17 16 15 14 13 12 11 9 8 7 6 5 5 5 5 5 5 5 5 5 5 5 6 6 7 9 10 11 12 13 14
41 39 37 35 33 31 29 27 25 23 22 20 19 18 16 15 15 13 12 11 9 8 7 7 7 6 6 6 6 6 6 6 6 7 7 8 9 10 11 12 13 14 15
43 41 39 37 35 32 30 28 26 25 23 21 20 19 18 17 16 15 14 12 11 10 9 8 8 7 7 7 7 7 7 7 8 8 9 9 10 11 12 13 14 15 16
44 43 41 39 37 34 32 30 28 26 24 23 22 20 19 18 17 16 15 14 13 12 11 10 9 9 8 8 8 8 8 8 9 10 10 10 11 12 13 14 15 16 17
46 44 43 40 38 36 33 32 30 27 26 24 23 22 20 19 18 18 17 16 14 13 12 11 10 10 10 9 9 9 9 10 10 11 11 12 13 13 14 15 16 17 18
48 46 44 42 40 38 35 33 31 29 27 26 25 23 22 21 20 19 18 17 16 15 14 13 12 12 11 11 11 11 11 11 12 12 13 14 14 15 16 17 18 19 20
49 48 46 44 42 40 37 35 33 31 29 28 26 25 24 22 21 20 19 18 18 17 16 15 14 13 13 13 13 13 13 13 13 14 15 15 16 17 18 19 20 21 21
51 49 48 46 44 41 39 37 35 33 31 29 28 26 25 24 23 22 21 20 19 18 17 16 16 15 15 15 15 15 15 15 15 16 17 17 18 19 19 20 21 22 23
53 50 48 47 45 42 40 39 36 34 32 31 29 28 27 26 25 23 22 22 21 20 19 18 17 17 17 17 17 17 17 17 17 18 18 19 20 21 22 22 23 24 25
54 52 51 48 46 44 42 40 38 35 34 33 31 29 28 27 26 25 24 23 22 21 21 20 19 19 19 19 19 19 19 19 19 19 20 21 22 22 23 24 25 26 27
53 54 52 50 48 46 43 41 39 37 36 34 33 31 30 29 28 26 25 24 24 23 22 22 21 21 20 20 20 20 20 20 21 21 22 23 24 25 26 26 27 28 29
51 53 52 50 49 47 45 43 41 39 38 36 34 33 32 30 29 28 27 26 25 24 24 24 23 23 22 22 22 22 22 22 23 23 24 25 26 27 28 28 29 30 31
51 52 51 50 48 48 46 45 43 42 40 38 36 35 33 32 31 30 29 28 27 26 26 25 25 25 24 24 24 24 24 24 25 26 27 28 28 29 29 30 31 32 32
50 50 50 49 48 48 47 46 45 44 43 41 39 37 35 34 33 32 30 30 29 29 28 27 27 26 26 25 26 26 26 26 27 28 29 29 30 30 31 32 32 33 33
50 50 50 50 50 48 47 46 46 46 44 42 41 39 38 36 35 33 32 31 31 30 30 30 29 28 28 27 27 27 28 28 29 30 31 31 32 32 32 32 33 33 34
49 52 51 51 51 50 48 47 47 47 46 44 43 41 40 38 37 35 34 34 33 33 32 31 30 30 30 30 30 30 30 30 31 32 32 32 33 33 33 34 34 35 35
49 52 50 51 52 51 51 49 48 47 47 46 45 44 42 40 39 37 37 36 36 35 34 32 32 32 32 32 32 32 32 32 32 32 33 33 33 33 33 34 35 36 37
50 52 50 49 51 51 51 49 49 48 49 48 46 45 43 42 41 40 39 39 38 37 36 35 35 34 34 34 33 33 33 33 32 33 33 34 34 35 36 37 38 38 39
49 49 51 50 48 48 50 48 48 47 47 46 46 47 45 44 43 42 41 40 39 39 38 37 37 37 37 36 36 35 34 34 34 34 35 36 36 37 38 38 39 39 40
50 50 50 51 50 48 50 49 49 48 47 47 48 48 48 47 46 44 42 40 40 40 40 40 40 39 38 38 37 35 35 35 35 35 35 36 37 37 38 38 39 40 40
49 48 49 51 52 50 49 49 49 47 46 47 47 47 46 46 46 45 45 43 42 41 40 40 39 39 38 37 36 35 35 36 35 35 36 36 37 37 38 39 40 41 42
Wind_Direction
219 219 219 220 222 222 221 222 223 223 223 222 218 215 214 212 212 215 218 222 237 262 297 325 80 86 71 89 108 113 117 106 77 49 37 28 22 16 14 14 14 13 12
219 218 218 220 221 222 221 222 223 223 223 223 221 218 216 215 216 219 223 228 238 250 257 260 258 213 201 158 168 173 167 145 59 12 8 6 5 4 3 5 5 4 4
219 218 219 219 221 222 221 222 223 223 223 223 223 220 218 217 218 221 225 231 237 246 247 249 246 235 232 220 213 213 218 234 274 313 332 341 349 351 353 355 357 358 357
219 219 218 219 220 221 221 221 222 223 223 224 224 222 220 220 221 222 226 230 235 242 247 247 241 238 237 233 230 232 243 256 267 289 309 322 331 338 342 346 349 350 350
220 219 218 218 219 220 220 221 222 223 224 224 224 224 222 223 224 225 227 229 234 241 246 245 241 241 243 245 244 246 254 261 266 279 297 311 319 326 331 336 339 341 342
219 219 218 218 218 219 220 221 222 224 225 225 225 225 224 224 225 227 228 230 234 242 244 241 242 245 248 251 252 253 257 263 269 278 292 302 310 317 323 327 331 333 336
219 219 218 218 218 219 220 221 222 224 225 225 225 227 226 226 226 229 230 232 234 241 243 242 243 248 251 253 255 258 261 266 271 278 288 297 304 311 317 321 325 328 331
218 219 218 218 218 219 220 221 222 223 225 225 225 226 227 227 228 230 233 234 236 240 244 245 247 249 252 253 255 259 263 267 272 279 286 293 299 306 312 316 319 322 325
217 218 218 218 218 219 219 220 221 222 223 225 225 226 226 228 230 232 235 236 237 241 245 248 250 251 253 255 257 259 263 267 273 279 285 290 296 301 306 311 315 317 320
215 216 217 217 218 218 219 220 221 221 222 224 225 226 227 228 231 233 235 236 238 240 244 248 250 251 253 257 258 260 263 268 274 279 285 290 294 298 303 307 310 313 316
214 215 215 216 217 217 218 220 220 221 222 224 225 226 227 229 231 232 234 236 238 240 244 247 249 252 254 257 259 262 266 271 275 280 284 288 292 296 300 304 307 309 312
213 213 214 216 217 217 217 219 220 221 223 224 226 227 228 229 231 232 235 237 238 241 244 246 249 252 255 257 260 263 267 272 276 280 283 287 291 294 298 301 304 307 310
211 212 213 215 216 217 217 218 220 222 223 225 226 227 229 230 232 234 236 238 240 241 244 247 250 253 255 257 260 264 267 271 275 279 282 286 290 293 296 300 302 305 308
209 212 212 214 215 216 218 219 220 222 224 226 226 228 230 231 233 235 237 239 241 242 245 248 251 253 255 257 260 264 268 272 275 278 282 285 288 292 295 298 300 303 305
208 210 212 212 214 215 218 219 220 222 224 225 227 229 231 232 234 236 237 239 241 243 246 249 251 253 256 258 261 264 267 271 274 277 281 284 287 291 293 295 297 300 302
209 209 210 211 212 214 217 219 220 222 223 225 227 229 231 233 234 236 237 239 241 243 246 249 251 253 256 259 262 264 267 270 274 278 281 284 287 290 292 294 295 298 300
209 208 209 211 212 213 215 218 221 222 223 225 227 229 231 233 234 236 238 240 242 244 247 250 252 255 257 260 262 265 268 271 275 279 282 285 287 290 291 293 295 297 299
208 209 209 210 211 212 215 218 220 221 223 224 226 229 231 234 236 237 239 241 244 246 248 251 253 256 258 260 262 265 267 271 275 279 282 285 287 289 291 293 294 297 298
211 210 208 210 210 212 214 216 219 221 223 224 226 229 232 235 237 238 240 243 245 246 249 252 254 256 258 261 263 265 268 272 276 279 282 284 287 289 291 293 293 295 297
211 209 210 212 212 213 214 216 219 222 223 225 227 229 232 235 236 239 241 244 246 248 250 252 254 257 260 262 264 266 269 272 275 279 282 284 286 288 291 292 293 294 296
212 212 213 213 214 214 216 218 219 222 225 226 228 230 233 235 237 239 242 244 247 249 251 252 254 257 260 263 265 267 269 272 276 279 281 283 286 289 291 292 293 295 296
215 214 216 215 215 215 216 218 219 222 224 226 229 231 233 235 238 241 243 245 248 250 250 252 254 258 261 263 265 268 271 274 277 279 282 284 286 288 290 291 293 295 296
219 219 221 221 220 220 219 218 220 222 225 228 231 232 233 236 239 241 244 246 248 250 251 253 256 259 262 265 267 268 271 274 275 278 281 283 285 287 289 291 292 293 295
221 222 223 224 224 224 223 223 224 225 228 230 232 233 235 237 238 241 244 247 249 251 253 256 258 261 264 265 267 268 270 273 276 277 280 283 286 288 289 290 291 292 294
225 227 227 227 227 229 228 229 230 230 230 231 233 235 236 239 240 242 245 248 250 252 254 257 259 261 264 265 266 267 270 273 276 278 281 284 286 288 289 290 290 292 293
228 230 231 230 230 232 232 232 232 231 233 234 235 236 237 239 241 243 246 249 251 253 255 258 261 262 264 265 265 267 271 275 276 279 282 284 286 287 289 291 292 293 294
Height
5868 5871 5873 5875 5877 5879 5880 5881 5882 5883 5884 5885 5886 5886 5886 5887 5887 5887 5887 5887 5887 5887 5887 5887 5887 5887 5887 5886 5886 5886 5886 5886 5886 5886 5885 5885 5884 5883 5882 5881 5879 5878 5876
5863 5866 5869 5872 5874 5876 5877 5879 5880 5881 5882 5883 5884 5885 5885 5886 5886 5886 5886 5887 5887 5887 5887 5886 5886 5886 5886 5886 5886 5886 5886 5886 5886 5885 5885 5884 5884 5883 5882 5880 5879 5878 5876
5859 5862 5865 5868 5871 5873 5875 5877 5878 5879 5880 5882 5882 5883 5884 5884 5885 5885 5885 5886 5886 5886 5886 5886 5886 5886 5886 5886 5886 5886 5886 5885 5885 5885 5885 5884 5883 5882 5881 5880 5879 5877 5876
5854 5858 5861 5864 5867 5870 5872 5874 5875 5877 5878 5879 5880 5881 5882 5883 5883 5884 5884 5885 5885 5885 5885 5885 5885 5885 5885 5885 5885 5885 5885 5885 5885 5884 5884 5883 5883 5882 5881 5880 5878 5877 5875
5849 5853 5857 5860 5863 5866 5869 5871 5873 5874 5876 5877 5878 5879 5880 5881 5882 5882 5883 5883 5884 5884 5884 5884 5884 5884 5884 5884 5884 5884 5884 5884 5884 5883 5883 5882 5882 5881 5880 5879 5878 5876 5875
5844 5848 5852 5855 5859 5862 5865 5867 5869 5871 5873 5875 5876 5877 5878 5879 5880 5881 5881 5882 5882 5883 5883 5883 5883 5883 5883 5883 5883 5883 5883 5883 5883 5882 5882 5882 5881 5880 5879 5878 5877 5875 5873
5838 5843 5847 5851 5854 5858 5861 5863 5866 5868 5870 5872 5873 5875 5876 5877 5878 5879 5879 5880 5881 5881 5881 5881 5882 5882 5882 5882 5882 5882 5882 5882 5882 5881 5881 5880 5880 5879 5878 5877 5875 5874 5872
5832 5837 5841 5845 5849 5853 5856 5859 5862 5864 5866 5868 5870 5872 5873 5874 5875 5876 5877 5878 5879 5879 5880 5880 5880 5880 5881 5881 5881 5881 5881 5881 5880 5880 5879 5879 5878 5877 5876 5875 5874 5872 5870
5826 5831 5836 5840 5844 5848 5852 5855 5858 5860 5863 5865 5867 5869 5870 5871 5873 5874 5875 5876 5876 5877 5878 5878 5878 5879 5879 5879 5879 5879 5879 5879 5879 5878 5878 5877 5876 5876 5875 5873 5872 5870 5869
5818 5825 5830 5834 5839 5843 5847 5850 5853 5856 5859 5861 5863 5865 5867 5868 5870 5871 5872 5873 5874 5875 5875 5876 5876 5877 5877 5877 5877 5877 5877 5877 5877 5876 5876 5875 5874 5874 5872 5871 5870 5868 5866
5811 5818 5824 5828 5833 5838 5842 5845 5848 5851 5854 5857 5859 5861 5863 5865 5866 5868 5869 5870 5871 5872 5873 5873 5874 5874 5875 5875 5875 5875 5875 5875 5875 5874 5874 5873 5872 5871 5870 5869 5867 5865 5864
5804 5811 5817 5822 5827 5832 5836 5840 5843 5846 5849 5852 5855 5857 5859 5861 5863 5864 5865 5867 5868 5869 5870 5870 5871 5871 5872 5872 5872 5873 5873 5872 5872 5872 5871 5870 5869 5868 5867 5866 5864 5862 5861
5797 5804 5810 5816 5821 5826 5831 5834 5838 5842 5845 5848 5850 5853 5855 5857 5859 5860 5862 5863 5864 5865 5866 5867 5868 5868 5869 5869 5869 5870 5870 5869 5869 5869 5868 5867 5866 5865 5864 5863 5861 5859 5857
5789 5795 5802 5808 5814 5820 5825 5829 5833 5836 5840 5843 5846 5848 5851 5853 5854 5856 5858 5859 5860 5862 5863 5863 5864 5865 5865 5866 5866 5866 5866 5866 5866 5865 5865 5864 5863 5862 5860 5859 5857 5855 5853
5780 5787 5794 5801 5807 5813 5818 5823 5827 5831 5834 5837 5840 5843 5846 5848 5850 5851 5853 5855 5856 5857 5858 5859 5860 5861 5861 5862 5862 5862 5862 5862 5862 5861 5861 5860 5859 5858 5856 5855 5853 5851 5849
5771 5778 5786 5793 5799 5806 5811 5816 5820 5824 5828 5832 5835 5838 5840 5843 5845 5847 5848 5850 5851 5853 5854 5855 5856 5856 5857 5857 5858 5858 5858 5858 5857 5857 5856 5855 5854 5853 5852 5850 5848 5846 5844
5763 5770 5777 5785 5791 5797 5803 5809 5813 5818 5822 5826 5829 5832 5835 5837 5839 5841 5843 5845 5846 5848 5849 5850 5851 5852 5852 5853 5853 5853 5853 5853 5853 5852 5851 5850 5849 5848 5846 5845 5843 5841 5839
5754 5762 5769 5776 5783 5790 5796 5801 5806 5811 5815 5819 5822 5826 5829 5831 5834 5836 5838 5840 5841 5843 5844 5845 5846 5847 5847 5848 5848 5848 5848 5848 5848 5847 5846 5845 5844 5842 5841 5839 5837 5836 5833
5747 5755 5762 5769 5776 5782 5788 5794 5799 5804 5808 5812 5816 5819 5822 5825 5828 5830 5832 5834 5836 5837 5838 5839 5840 5841 5842 5842 5843 5843 5843 5842 5842 5841 5840 5839 5838 5836 5835 5833 5832 5830 5828
5740 5748 5754 5760 5767 5774 5780 5785 5791 5796 5801 5805 5808 5812 5815 5818 5821 5823 5826 5828 5829 5831 5832 5833 5834 5835 5836 5836 5837 5837 5837 5836 5836 5835 5834 5833 5831 5830 5829 5827 5825 5823 5821
5734 5740 5747 5753 5760 5766 5772 5778 5783 5788 5793 5797 5801 5804 5808 5811 5814 5817 5819 5821 5823 5824 5826 5827 5828 5829 5830 5830 5830 5830 5830 5830 5829 5828 5827 5826 5825 5823 5822 5820 5818 5816 5814
5728 5734 5739 5745 5752 5759 5765 5770 5775 5780 5785 5789 5793 5797 5800 5804 5807 5809 5811 5814 5816 5817 5818 5820 5821 5822 5823 5823 5824 5823 5823 5824 5822 5821 5820 5819 5818 5816 5815 5813 5811 5809 5807
5723 5728 5733 5738 5744 5751 5756 5761 5766 5771 5775 5780 5785 5789 5793 5796 5799 5801 5803 5806 5808 5809 5811 5812 5813 5814 5815 5816 5816 5816 5816 5816 5816 5815 5813 5812 5811 5809 5808 5806 5804 5801 5799
5716 5721 5726 5732 5737 5743 5749 5755 5759 5763 5768 5773 5777 5781 5784 5787 5790 5793 5795 5798 5800 5801 5803 5805 5806 5807 5807 5808 5808 5808 5809 5808 5808 5807 5806 5805 5803 5802 5800 5798 5795 5793 5791
5708 5713 5719 5725 5730 5735 5741 5747 5751 5756 5760 5764 5767 5771 5775 5779 5781 5785 5787 5789 5791 5793 5795 5796 5797 5798 5799 5800 5800 5800 5800 5800 5799 5799 5798 5797 5795 5794 5792 5789 5787 5785 5782
5700 5706 5712 5716 5723 5728 5732 5738 5743 5747 5751 5755 5758 5762 5766 5769 5773 5776 5779 5781 5783 5785 5786 5788 5789 5790 5791 5791 5791 5792 5792 5792 5791 5790 5789 5788 5787 5785 5783 5781 5778 5776 5773